Weather History for Air Force Academy, CO

Change the Weather History Date:

Monday, November 7, 2011

  Actual Average Record
Temperature  
Mean Temperature 32 °F -  
Max Temperature 41 °F 49 °F 73 °F (2006)
Min Temperature 22 °F 26 °F 8 °F (2000)
Degree Days  
Heating Degree Days 34    
Moisture  
Dew Point 18 °F    
Average Humidity 59    
Maximum Humidity 80    
Minimum Humidity 33    
Precipitation  
Precipitation 0.00 in - - ()
Sea Level Pressure  
Sea Level Pressure 30.02 in    
Wind  
Wind Speed 9 mph (North)    
Max Wind Speed 16 mph    
Max Gust Speed 22 mph    
Visibility 10 miles    
Events      
Averages and records for this station are not official NWS values.
T = Trace of Precipitation, MM = Missing Value Source: NWS Daily Summary

Daily Weather History Graph

Daily Weather History Graph

Search for Another Location

Airport:

Trip Planner

Search our weather history database for the weather conditions in past years. The results will help you decide how hot, cold, wet, or windy it might be!

Date:

Astronomy

Nov. 07, 2011 Rise Set
Actual Time 6:32 AM MST 4:52 PM MST
Civil Twilight 6:04 AM MST 5:20 PM MST
Nautical Twilight 5:33 AM MST 5:52 PM MST
Astronomical Twilight 5:01 AM MST 6:23 PM MST
Moon 3:03 PM MST (11/7) 3:39 AM MST (11/7)
Length of Visible Light 11h 15m
Length of Day
10h 19m
Waxing Gibbous, 92% of the Moon is Illuminated
Nov 7
Waxing Gibbous
Nov 10
Full
Nov 18
Last Quarter
Nov 24
New
Dec 2
First Quarter

Hourly Weather History & Observations

Time (MST) Temp. Windchill Dew Point Humidity Pressure Visibility Wind Dir Wind Speed Gust Speed Precip Events Conditions
12:55 AM 22.8 °F 15.5 °F 16.9 °F 78% 29.98 in 10.0 mi North 5.8 mph - N/A   Clear
1:55 AM 24.3 °F 19.9 °F 18.1 °F 77% 29.98 in 10.0 mi North 3.5 mph - N/A   Clear
2:55 AM 26.1 °F 18.4 °F 16.5 °F 67% 29.94 in 10.0 mi North 6.9 mph - N/A   Clear
3:55 AM 27.1 °F 18.9 °F 16.9 °F 65% 29.96 in 10.0 mi North 8.1 mph - N/A   Clear
4:55 AM 28.6 °F 19.3 °F 16.0 °F 59% 29.97 in 10.0 mi North 10.4 mph - N/A   Clear
5:55 AM 27.5 °F 18.0 °F 16.5 °F 63% 30.04 in 10.0 mi North 10.4 mph - N/A   Clear
6:55 AM 28.8 °F 17.5 °F 14.5 °F 55% 30.08 in 10.0 mi North 15.0 mph 21.9 mph N/A   Scattered Clouds
7:55 AM 31.5 °F 20.5 °F 14.4 °F 49% 30.08 in 10.0 mi North 16.1 mph - N/A   Overcast
8:55 AM 34.3 °F 24.6 °F 14.2 °F 44% 30.06 in 10.0 mi North 15.0 mph - N/A   Overcast
9:55 AM 35.8 °F 27.3 °F 14.9 °F 43% 30.08 in 10.0 mi North 12.7 mph - N/A   Overcast
10:55 AM 39.2 °F 32.0 °F 15.6 °F 38% 30.06 in 10.0 mi North 11.5 mph 19.6 mph N/A   Mostly Cloudy
11:55 AM 40.1 °F 32.7 °F 15.3 °F 36% 30.00 in 10.0 mi North 12.7 mph - N/A   Clear
12:55 PM 41.7 °F 36.7 °F 14.5 °F 33% 29.98 in 10.0 mi NE 8.1 mph - N/A   Clear
1:55 PM 41.4 °F 37.6 °F 15.4 °F 35% 29.98 in 10.0 mi NNW 5.8 mph - N/A   Clear
2:55 PM 41.7 °F 36.1 °F 16.5 °F 36% 29.96 in 10.0 mi NNW 9.2 mph - N/A   Partly Cloudy
3:55 PM 40.3 °F 34.9 °F 16.3 °F 38% 29.96 in 10.0 mi North 8.1 mph - N/A   Clear
4:55 PM 34.7 °F 28.1 °F 19.0 °F 53% 30.01 in 10.0 mi North 8.1 mph - N/A   Partly Cloudy
5:55 PM 32.7 °F 25.7 °F 20.3 °F 60% 30.07 in 10.0 mi North 8.1 mph - N/A   Scattered Clouds
6:55 PM 31.3 °F 23.9 °F 22.3 °F 69% 30.08 in 10.0 mi North 8.1 mph - N/A   Clear
7:55 PM 31.1 °F 22.4 °F 23.9 °F 75% 30.07 in 10.0 mi North 10.4 mph - N/A   Mostly Cloudy
8:55 PM 30.6 °F 21.2 °F 23.9 °F 76% 30.07 in 10.0 mi North 11.5 mph - N/A   Partly Cloudy
9:55 PM 30.2 °F 20.2 °F 23.9 °F 77% 30.04 in 10.0 mi North 12.7 mph - N/A   Clear
10:55 PM 29.5 °F 18.0 °F 24.1 °F 80% 30.03 in 10.0 mi North 16.1 mph 19.6 mph N/A   Clear
11:38 PM 30.2 °F 20.2 °F 23.0 °F 75% 30.00 in 10.0 mi North 12.7 mph - N/A   Mostly Cloudy
11:40 PM 30.2 °F 19.3 °F 23.0 °F 75% 29.99 in 10.0 mi NNW 15.0 mph 20.7 mph N/A   Mostly Cloudy
11:55 PM 30.4 °F 20.5 °F 23.2 °F 75% 29.99 in 10.0 mi North 12.7 mph 18.4 mph N/A   Mostly Cloudy